Regional Weather Roundup
Issued by NWS

Home | Current Version | Previous Version | Graphics & Text | Print | Product List | Glossary On
Versions: 1 2 3 4 5 6 7 8 9 10 11 12 13 14 15 16 17 18 19 20 21 22 23 24 25 26 27 28 29 30 31 32 33 34 35 36 37 38 39 40 41 42 43 44 45 46 47 48 49 50
180
ASUS43 KDTX 181810
RWRMI
MICHIGAN HOURLY REGIONAL WEATHER ROUNDUP
NATIONAL WEATHER SERVICE DETROIT/PONTIAC MI
100 PM EST WED JAN 18 2017

NOTE: "FAIR" INDICATES FEW OR NO CLOUDS BELOW 12,000 FEET WITH NO
SIGNIFICANT WEATHER AND/OR OBSTRUCTION TO VISIBILITY.

MIZ047>049-052>055-059>063-066>070-074>076-081>083-181900-
SOUTHEAST LOWER MICHIGAN

CITY           SKY/WX    TMP DP  RH WIND       PRES   REMARKS
ADRIAN         CLOUDY    38  36  92 W15       30.09F WCI  29
6HR MIN TEMP:  34; 6HR MAX TEMP:  38;

ALMA           CLOUDY    38  36  92 SW10      30.03F WCI  30
6HR MIN TEMP:  35; 6HR MAX TEMP:  38;

ANN ARBOR      CLOUDY    39  37  92 SW9       30.07S WCI  33
BAD AXE        CLOUDY    36  36 100 W13       29.98F WCI  27
6HR MIN TEMP:  33; 6HR MAX TEMP:  36;

CARO           CLOUDY    36  36  99 SW12      30.00F FOG     WCI  28
DETROIT CITY   CLOUDY    39  37  93 W12G17    30.06S WCI  32
DETROIT        CLOUDY    40  36  86 W10       30.08S WCI  33
6HR MIN TEMP:  37; 6HR MAX TEMP:  40; 6HR PCP: TRACE;

FLINT          CLOUDY    37  36  96 W8        30.03F FOG     WCI  31
6HR MIN TEMP:  35; 6HR MAX TEMP:  37;

GROSSE ILE     CLOUDY    39  35  87 W6        30.06S WCI  34
6HR MIN TEMP:  36; 6HR MAX TEMP:  39;

HILLSDALE      CLOUDY    36  34  93 W9        30.06F FOG     WCI  29
HOWELL         CLOUDY    37  35  91 W12       30.04F FOG     WCI  30

CITY           SKY/WX    TMP DP  RH WIND       PRES   REMARKS
JACKSON        CLOUDY    38  35  89 W8        30.06F WCI  32
6HR MIN TEMP:  35; 6HR MAX TEMP:  38;

LAMBERTVILLE   CLOUDY    39  36  89 W7        30.09F FOG     WCI  34
6HR MIN TEMP:  37; 6HR MAX TEMP:  39;

LANSING        CLOUDY    37  34  89 W13       30.05F WCI  29
6HR MIN TEMP:  35; 6HR MAX TEMP:  38;

LAPEER         CLOUDY    37  36  96 W13G20    30.02F FOG     WCI  28
6HR MIN TEMP:  35; 6HR MAX TEMP:  37;

MASON          CLOUDY    37  36  97 W7        30.06F WCI  32
MONROE         CLOUDY    38  37  92 W10       30.08S WCI  32
6HR MIN TEMP:  35; 6HR MAX TEMP:  38;

MT. CLEMENS    CLOUDY    40  38  92 W8        30.02F WCI  34
6HR MIN TEMP:  37; 6HR MAX TEMP:  40;

PONTIAC        CLOUDY    37  34  89 W9        30.02F FOG     WCI  30
6HR MIN TEMP:  35; 6HR MAX TEMP:  37; 6HR PCP: TRACE;

PORT HOPE        N/A     37  34  89 W8G17     29.96F WCI  31
6HR MIN TEMP:  34; 6HR MAX TEMP:  37;

PORT HURON     CLOUDY    37  36  93 W3        30.02F
TRI CITIES     CLOUDY    37  36  96 W13       30.02F WCI  29
6HR MIN TEMP:  35; 6HR MAX TEMP:  37;

MIDLAND        CLOUDY    38  35  89 W7        30.00F WCI  33
6HR MIN TEMP:  36; 6HR MAX TEMP:  38;

TROY           CLOUDY    39  35  84 W10       30.06F WCI  33
SAGINAW HB     CLOUDY    37  34  87 W10G16    30.01F WCI  30
$$
MIZ043>046-050>051-056>058-064>065-071>073-077>080-181900-
SOUTHWEST LOWER MICHIGAN

CITY           SKY/WX    TMP DP  RH WIND       PRES   REMARKS
BATTLE CREEK   CLOUDY    38  36  92 W10       30.07F WCI  31
6HR MIN TEMP:  35; 6HR MAX TEMP:  38;

BENTON HARBOR  CLOUDY    37  34  89 SW8       30.08F FOG     WCI  31
6HR MIN TEMP:  36; 6HR MAX TEMP:  37;

BIG RAPIDS     CLOUDY    36  35  94 SW13      30.00F WCI  28
6HR MIN TEMP:  34; 6HR MAX TEMP:  36;

COLDWATER      CLOUDY    37  37  99 W6        30.08F WCI  32
6HR MIN TEMP:  35; 6HR MAX TEMP:  37;

FREMONT        CLOUDY    36  36 100 SW13      30.03F WCI  27
HOLLAND        CLOUDY    37  34  89 SW12      30.05F WCI  29
6HR MIN TEMP:  36; 6HR MAX TEMP:  38;

GRAND RAPIDS   CLOUDY    38  35  89 SW12      30.04F WCI  30
6HR MIN TEMP:  35; 6HR MAX TEMP:  38;

IONIA          CLOUDY    37  36  94 SW10      30.03F WCI  30
6HR MIN TEMP:  34; 6HR MAX TEMP:  37;

KALAMAZOO      CLOUDY    38  34  85 W8        30.08F WCI  32
6HR MIN TEMP:  36; 6HR MAX TEMP:  39;

LUDINGTON      CLOUDY    35  35 100 SW12G18   30.02F FOG     WCI  27
6HR MIN TEMP:  34; 6HR MAX TEMP:  36;

MARSHALL       CLOUDY    38  37  94 W9        30.07F WCI  32
6HR MIN TEMP:  35; 6HR MAX TEMP:  38;

MOUNT PLEASANT CLOUDY    38  36  91 W9        30.01F WCI  31
6HR MIN TEMP:  35; 6HR MAX TEMP:  38;

MUSKEGON       CLOUDY    38  35  89 SW12      30.05F WCI  30
6HR MIN TEMP:  37; 6HR MAX TEMP:  39;

SOUTH HAVEN    CLOUDY    36  35  96 SW9       30.07F FOG     WCI  29
$$
MIZ016>042-181900-
NORTHERN LOWER MICHIGAN

CITY           SKY/WX    TMP DP  RH WIND       PRES   REMARKS
ALPENA         CLOUDY    36  32  85 SW12      29.96S WCI  28
6HR MIN TEMP:  33; 6HR MAX TEMP:  36;

BEAVER ISLAND  CLOUDY    35  35 100 SW17G25   29.90F FOG     WCI  24
6HR MIN TEMP:  33; 6HR MAX TEMP:  36;

BELLAIRE       CLOUDY    37  35  92 S8        29.97F WCI  30
6HR MIN TEMP:  33; 6HR MAX TEMP:  37;

CADILLAC       CLOUDY    35  34  96 W9        29.97S FOG     WCI  27
CHARLEVOIX     CLOUDY    37  35  96 SW9G18    29.96F WCI  30
6HR MIN TEMP:  34; 6HR MAX TEMP:  37;

FRANKFORT      FOG      N/A N/A N/A SW12G17   30.00F VSB 3/4
GAYLORD        CLOUDY    34  31  88 SW13G21   29.92F WCI  25
6HR MIN TEMP:  32; 6HR MAX TEMP:  34;

GRAYLING       CLOUDY    36  34  92 SW7       29.97S WCI  31
HARBOR SPRINGS CLOUDY    35  33  94 SW7       29.93F WCI  29
HOUGHTON LAKE  CLOUDY    35  33  92 W9        29.97F WCI  28
6HR MIN TEMP:  32; 6HR MAX TEMP:  35;

MANISTEE       CLOUDY    36  35  96 SW8       30.01S FOG     WCI  30
OSCODA         CLOUDY    37  35  93 W12       29.97R WCI  29
6HR MIN TEMP:  33; 6HR MAX TEMP:  37;

PELLSTON       CLOUDY    36  32  85 SW9       29.92F WCI  29
6HR MIN TEMP:  32; 6HR MAX TEMP:  36;

ROGERS CITY    CLOUDY    36  33  90 SW9       29.94F WCI  29
TRAVERSE CITY  CLOUDY    38  34  85 SW8       29.96F WCI  32
6HR MIN TEMP:  34; 6HR MAX TEMP:  38;

$$
MIZ007>008-015-181900-
EASTERN UPPER MICHIGAN

CITY           SKY/WX    TMP DP  RH WIND       PRES   REMARKS
KINROSS        CLOUDY    36  33  89 SW12G20   29.87F WCI  28
6HR MIN TEMP:  29; 6HR MAX TEMP:  36;

MACKINAC ISLAN CLOUDY    34  34 100 W12G22    29.89F WCI  26
6HR MIN TEMP:  31; 6HR MAX TEMP:  35;

NEWBERRY       CLOUDY    32  32  99 S13G23    29.84F WCI  23
6HR MIN TEMP:  29; 6HR MAX TEMP:  33;

S. S. MARIE    CLOUDY    35  33  92 S8        29.86F WCI  29
6HR MIN TEMP:  29; 6HR MAX TEMP:  35;

MUNISING         N/A     39  30  70 SW8G21    29.80F WCI  33
6HR MIN TEMP:  28; 6HR MAX TEMP:  39;

$$
MIZ004>006-011>014-085-181900-
CENTRAL UPPER MICHIGAN

CITY           SKY/WX    TMP DP  RH WIND       PRES   REMARKS
MANISTIQUE     CLOUDY    32  32  99 SW14G20   29.87F FOG     WCI  22
6HR MIN TEMP:  30; 6HR MAX TEMP:  32;

ESCANABA       MOSUNNY   39  32  75 SW10G20   29.87F WCI  32
6HR MIN TEMP:  31; 6HR MAX TEMP:  39;

SAWYER-GWINN   SUNNY     36  30  80 SW16G25   29.79F WCI  26
$$
MIZ001>003-009>011-084-181900-
WESTERN UPPER MICHIGAN

CITY           SKY/WX    TMP DP  RH WIND       PRES   REMARKS
IRON MOUNTAIN  SUNNY     39  27  62 SW7       29.83F WCI  34
6HR MIN TEMP:  11; 6HR MAX TEMP:  39;

HOUGHTON       SUNNY     39  25  57 W20       29.74F WCI  29
6HR MIN TEMP:  27; 6HR MAX TEMP:  39;

COPPER HARBOR    N/A     41  27  57 N13       29.74S
6HR MIN TEMP:  28; 6HR MAX TEMP:  42;

IRONWOOD       SUNNY     42  26  53 SW10      29.78F
6HR MIN TEMP:  30; 6HR MAX TEMP:  42;

$$

ABBREVIATIONS USED IN REMARKS
   TC - TEMPERATURE IN CELSIUS
  WCI - WIND CHILL INDEX
   HX - HEAT INDEX
  VSB - VISIBILITY





USA.gov is the U.S. government's official web portal to all federal, state and local government web resources and services.